Regional Weather Roundup
Issued by NWS

Home | Current Version | Previous Version | Text Only | Print | Product List | Glossary Off
Versions: 1 2 3 4 5 6 7 8 9 10 11 12 13 14 15 16 17 18 19 20 21 22 23 24 25 26 27 28 29 30 31 32 33 34 35 36 37 38 39 40 41 42 43 44 45 46 47 48 49 50

000
ASUS43 KLMK 200910
RWRKY
KENTUCKY REGIONAL WEATHER ROUNDUP
NATIONAL WEATHER SERVICE LOUISVILLE KY
400 AM EST SAT JAN 20 2018

NOTE "FAIR" INDICATES FEW OR NO CLOUDS BELOW 12,000 FEET
WITH NO SIGNIFICANT WEATHER AND/OR OBSTRUCTIONS TO VISIBILITY.

KYZ001>023-026-027-061>063-070>075-201000-
WESTERN AND SOUTH CENTRAL KENTUCKY

CITY           SKY/WX    TMP DP  RH WIND       PRES   REMARKS
PADUCAH        MOCLDY    38  18  44 SW6       30.11R WCI  33
HENDERSON      FAIR      35  18  49 SW12      30.09S WCI  27
OWENSBORO      FAIR      31  21  66 S9        30.10S WCI  23
HOPKINSVILLE   MOCLDY    42  22  45 SW16      30.12S
BOWLING GREEN  CLOUDY    39  27  62 S7        30.14S WCI  34
GLASGOW        CLOUDY    41  26  54 SW5       30.14S
$$

KYZ024-025-028>034-038-045-046-053-201000-
NORTH CENTRAL KENTUCKY

CITY           SKY/WX    TMP DP  RH WIND       PRES   REMARKS
LOUISVILLE/SDF FAIR      41  26  55 S8        30.09S
LOUISVILLE/LOU FAIR      38  26  62 S7        30.10S WCI  33
FORT KNOX      MOCLDY    39  25  56 S12       30.08R WCI  32
$$

KYZ035>037-039>044-047>052-055>060-089>105-201000-
NORTHEAST KENTUCKY

CITY           SKY/WX    TMP DP  RH WIND       PRES   REMARKS
LEXINGTON      CLOUDY    41  28  60 SW16      30.10S
COVINGTON      MOCLDY    35  25  66 SW10      30.02R WCI  27
FRANKFORT      MOCLDY    39  25  57 SW9       30.08S WCI  33
$$

KYZ054-064>069-076>088-106>120-201000-
SOUTHEAST KENTUCKY

CITY           SKY/WX    TMP DP  RH WIND       PRES   REMARKS
JACKSON        CLOUDY    39  26  59 VRB5      30.13S
LONDON         CLOUDY    41  28  60 SW8       30.16S
SOMERSET       CLOUDY    37  25  60 S7        30.18S WCI  32
MIDDLESBORO    CLOUDY    29  26  87 CALM      30.22F
MONTICELLO     CLOUDY    45  29  53 SW20      30.18S
$$




USA.gov is the U.S. government's official web portal to all federal, state and local government web resources and services.